Home   Weather   Puerto Williams   Past weeks

Flag for Chile Past Weather in Puerto Williams, Chile — Yesterday and Last 2 Weeks

Now
41 °F

Scattered showers. Partly sunny.


Feels Like: 32 °F
Forecast: 42 / 50 °F
Wind: 21 mph from East

Location: Ushuaia Aerodrome

Current Time: Oct 1, 2016 at 10:48:49 AM

Latest Report: Oct 1, 2016 at 10:00 AM


Visibility: N/A

Pressure: 30.07 "Hg

Humidity: 93%

Dew Point: 39 °F

Location of Puerto WilliamsLocation

Past Weather in Puerto Williams — Graph

°F

Puerto Williams Temperature Yesterday

Maximum temperature yesterday: 52 °F (at 3:00 PM)
Minimum temperature yesterday: 43 °F (at 1:00 AM)
Average temperature yesterday: 46 °F

High & Low Weather Summary for the Past Weeks

 TemperatureHumidityPressure
High55 °F (Sep 18, 3:00 PM)100% (Sep 22, 7:00 AM)30.18 "Hg (Sep 22, 7:00 AM)
Low36 °F (Sep 17, 8:00 AM)21% (Sep 25, 3:00 PM)29.24 "Hg (Sep 20, 4:00 AM)
Average45 °F64%29.82 "Hg
* Reported Sep 16 9:00 AM — Oct 1 9:00 AM, Puerto Williams, Weather by CustomWeather, © 2016

Note: Actual official high and low records may vary slightly from our data, if they occured in-between our weather recording intervals... More about our weather records

Advertising

Puerto Williams Weather History for the Previous 24 Hours

Scroll right to see more
 ConditionsComfort  
Time TempWeatherWind HumidityBarometerVisibility
9:00 AM
Sat, Oct 1
41 °FScattered showers. Broken clouds.21 mph93%30.07 "HgN/A
8:00 AM39 °FPartly sunny.14 mph93%30.09 "HgN/A
7:00 AM39 °FBroken clouds.9 mph93%30.09 "HgN/A
6:00 AM39 °FPartly cloudy.6 mph93%30.09 "HgN/A
5:00 AM41 °FPartly cloudy.8 mph87%30.12 "HgN/A
4:00 AM41 °FPassing clouds.12 mph93%30.12 "HgN/A
3:00 AM41 °FPassing clouds.10 mph93%30.12 "HgN/A
1:00 AM43 °FPassing clouds.9 mph87%30.15 "HgN/A
12:00 AM43 °FPassing clouds.6 mph87%30.18 "HgN/A
11:00 PM
Fri, Sep 30
43 °FPassing clouds.5 mph81%30.18 "HgN/A
10:00 PM43 °FPassing clouds.5 mph81%30.18 "HgN/A
9:00 PM45 °FScattered showers. Passing clouds.10 mph66%30.15 "HgN/A
8:00 PM45 °FScattered showers. Partly cloudy.13 mph66%30.12 "HgN/A
7:00 PM46 °FBroken clouds.9 mph66%30.12 "HgN/A
6:00 PM50 °FScattered clouds.No wind58%30.09 "HgN/A
5:00 PM52 °FScattered clouds.No wind54%30.09 "HgN/A
4:00 PM52 °FPassing clouds.3 mph47%30.09 "HgN/A
3:00 PM52 °FPassing clouds.No wind50%30.07 "HgN/A
2:00 PM50 °FPassing clouds.3 mph54%30.09 "HgN/A
1:00 PM48 °FPartly sunny.3 mph62%30.07 "HgN/A
12:00 PM46 °FBroken clouds.6 mph62%30.07 "HgN/A
11:00 AM46 °FScattered clouds.12 mph62%30.07 "HgN/A
10:00 AM45 °FScattered clouds.16 mph71%30.04 "HgN/A
Weather by CustomWeather, © 2016

See weather overviewHow to use our weather pages